[Iaude] MPEC U130: 2023 UO2 [a=2.85,e=0.59,i=8.5,H=25.3]

mpec at marsden.cfa.harvard.edu mpec at marsden.cfa.harvard.edu
Fri Oct 20 09:30:53 EDT 2023


M.P.E.C. 2023-U130                             Issued 2023 October 20, 13:29 UT

     The Minor Planet Electronic Circulars contain information on unusual
         minor planets, routine data on comets and natural satellites,
         and occasional editorial announcements.  They are published
    on behalf of Division F of the International Astronomical Union by the
          Minor Planet Center, Smithsonian Astrophysical Observatory,
                          Cambridge, MA 02138, U.S.A.
			  
             Prepared using the Tamkin Foundation Computer Network

                              MPC at CFA.HARVARD.EDU
            URL https://www.minorplanetcenter.net/    ISSN 1523-6714

                                    2023 UO2                                    


Observations:
     K23U02O* C2023 10 18.40196 03 06 02.33 +23 33 33.4          23.0 GVEU130V00
     K23U02O  C2023 10 18.40746 03 06 03.64 +23 33 22.2          22.2 GVEU130V00
     K23U02O  C2023 10 18.41296 03 06 05.04 +23 33 10.5          22.4 GVEU130V00
     K23U02O  C2023 10 18.41847 03 06 06.35 +23 32 59.3          22.8 GVEU130V00
     K23U02O  C2023 10 18.44840 03 06 13.72 +23 31 56.6          23.4 GVEU130V00
     K23U02O  C2023 10 18.45154 03 06 14.53 +23 31 49.9          23.9 GVEU130V00
     K23U02O  C2023 10 18.45487 03 06 15.35 +23 31 42.9          22.5 GVEU130V00
     K23U02O  C2023 10 18.45804 03 06 16.08 +23 31 36.8          22.4 GVEU130V00
     K23U02O KC2023 10 18.47330 03 06 19.90 +23 31 04.1                VEU130291
     K23U02O KC2023 10 18.48280 03 06 22.23 +23 30 44.5          23.1 RVEU130291
     K23U02O mC2023 10 19.40373103 10 22.040+22 58 48.18         22.98GVEU130V00
     K23U02O mC2023 10 19.40913503 10 23.347+22 58 36.80         23.05GVEU130V00
     K23U02O mC2023 10 19.41467703 10 24.676+22 58 24.82         23.30GVEU130V00
     K23U02O mC2023 10 20.43280203 14 43.656+22 22 03.36         23.24GVEU130V00
     K23U02O mC2023 10 20.43869503 14 45.064+22 21 50.58         22.33GVEU130V00
     K23U02O mC2023 10 20.44394803 14 46.295+22 21 38.56               VEU130V00
     K23U02O mC2023 10 20.44921503 14 47.548+22 21 27.18         23.87GVEU130V00

Observer details:
291 LPL/Spacewatch II.  Observer T. H. Bressi.  1.8-m f/2.7 reflector + CCD.
V00 Kitt Peak-Bok.  Observer R. A. Mastaler.  Measurers M. J. Brucker, C. E.
    Woodward, D. Fay, J. B. Fazekas, D. C. Fuls, A. R. Gibbs, H. Groeller, J.
    K. Hogan, R. A. Kowalski, S. M. Larson, C. Lejoly, G. J. Leonard, R. A.
    Mastaler, R. S. McMillan, D. Rankin, R. L. Seaman, A. Serrano, F. C.
    Shelly, K. W. Wierzchos.  2.25-m reflector + mosaic CCD, 2.25-m reflector
    + 4x4K mosaic CCD.

Orbital elements:
2023 UO2                                                 Earth MOID = 0.1839 AU
Epoch 2023 Sept. 13.0 TT = JDT 2460200.5                Veres                   
M 352.09844              (2000.0)            P               Q                  
n   0.20527813     Peri.  176.22890     +0.85093998     -0.51827384             
a   2.8460395      Node   215.41162     +0.47798137     +0.83145481             
e   0.5859566      Incl.    8.47537     +0.21779567     +0.20018774             
P   4.80           H   25.34          G   0.15           U   9                  
Residuals in seconds of arc
231018 V00  0.1+  0.2-    231018 V00  0.4+  0.2-    231019 V00  0.0   0.0
231018 V00  0.4-  0.0     231018 V00  0.4-  0.3+    231020 V00  0.1-  0.2-
231018 V00  0.3+  0.3-    231018 291  0.3+  0.2-    231020 V00  0.1+  0.0
231018 V00  0.3-  0.0     231018 291  0.1-  0.3+    231020 V00  0.1-  0.4-
231018 V00  0.1-  0.1-    231019 V00  0.0   0.0     231020 V00  0.0   0.1-
231018 V00  0.4+  0.2-    231019 V00  0.1+  0.1+

Ephemeris:
2023 UO2                 a,e,i = 2.85, 0.59, 8                   q = 1.1784
Date    TT    R. A. (2000) Decl.     Delta      r    Elong.  Phase     V
2023 09 20    01 01 55.8 +29 49 24   0.2753  1.2379   144.0    28.5    24.3
...
2023 10 05    02 04 22.2 +29 04 49   0.2221  1.1952   148.4    26.0    23.6
...
2023 10 13    02 41 40.5 +26 20 00   0.2061  1.1829   151.2    23.9    23.4
...
2023 10 19    03 08 38.3 +23 13 05   0.2003  1.1788   153.4    22.2    23.3
2023 10 20    03 12 54.9 +22 37 48   0.1998  1.1785   153.7    22.0    23.3
2023 10 21    03 17 06.8 +22 01 35   0.1995  1.1784   154.1    21.7    23.2
...
2023 10 27    03 40 22.4 +18 11 19   0.2009  1.1803   155.9    20.1    23.2
...
2023 11 04    04 05 23.8 +13 00 24   0.2107  1.1897   157.8    18.4    23.3
...
2023 11 19    04 34 09.5 +05 21 33   0.2512  1.2275   160.0    16.0    23.7

M. P. C. Staff               (C) Copyright 2023 MPC           M.P.E.C. 2023-U130





More information about the Iaude mailing list